| time (UTC) | temp F | wind direction | speed MPH | gust MPH | rain 1hr in | rain 24hr in | rain mn in | humidity % | barometer mb |
| 20260502191758 | 70 | 13 | 3.0 | 4.0 | 0.00 | 0.00 | 0.00 | 49 | 1062.8 |
| 20260502191256 | 70 | 26 | 1.0 | 4.0 | 0.00 | 0.00 | 0.00 | 48 | 1062.7 |
| 20260502190753 | 69 | 10 | 0.0 | 3.0 | 0.00 | 0.00 | 0.00 | 52 | 1062.8 |
| 20260502190250 | 69 | 29 | 2.0 | 3.0 | 0.00 | 0.00 | 0.00 | 48 | 1062.8 |
| 20260502185745 | 69 | 65 | 0.0 | 4.0 | 0.00 | 0.00 | 0.00 | 51 | 1062.8 |
| 20260502185241 | 71 | 18 | 2.0 | 4.0 | 0.00 | 0.00 | 0.00 | 50 | 1062.7 |
| 20260502184738 | 69 | 10 | 2.0 | 6.0 | 0.00 | 0.00 | 0.00 | 52 | 1062.9 |
| 20260502184234 | 69 | 4 | 2.0 | 3.0 | 0.00 | 0.00 | 0.00 | 53 | 1063.0 |
| 20260502183731 | 69 | 35 | 3.0 | 4.0 | 0.00 | 0.00 | 0.00 | 52 | 1063.2 |
| 20260502183226 | 69 | 18 | 4.0 | 6.0 | 0.00 | 0.00 | 0.00 | 54 | 1063.1 |
| 20260502182722 | 68 | 31 | 4.0 | 7.0 | 0.00 | 0.00 | 0.00 | 53 | 1063.1 |
| 20260502182217 | 69 | 22 | 4.0 | 6.0 | 0.00 | 0.00 | 0.00 | 54 | 1063.2 |
| 20260502181714 | 69 | 31 | 1.0 | 4.0 | 0.00 | 0.00 | 0.00 | 52 | 1063.2 |
| 20260502181209 | 68 | 18 | 2.0 | 9.0 | 0.00 | 0.00 | 0.00 | 55 | 1063.6 |
| 20260502180705 | 68 | 42 | 1.0 | 6.0 | 0.00 | 0.00 | 0.00 | 56 | 1063.5 |
| 20260502180202 | 68 | 24 | 2.0 | 3.0 | 0.00 | 0.00 | 0.00 | 54 | 1063.6 |
| 20260502170126 | 66 | 0 | 3.0 | 3.0 | 0.00 | 0.00 | 0.00 | 61 | 1064.4 |
| 20260502164113 | 64 | 52 | 2.0 | 6.0 | 0.00 | 0.00 | 0.00 | 64 | 1064.4 |
| 20260502163609 | 64 | 17 | 2.0 | 4.0 | 0.00 | 0.00 | 0.00 | 65 | 1064.5 |
| 20260502163106 | 64 | 316 | 3.0 | 9.0 | 0.00 | 0.00 | 0.00 | 63 | 1064.5 |
| 20260502162602 | 64 | 23 | 3.0 | 4.0 | 0.00 | 0.00 | 0.00 | 64 | 1064.4 |
| 20260502162100 | 64 | 334 | 3.0 | 7.0 | 0.00 | 0.00 | 0.00 | 63 | 1064.5 |
| 20260502161556 | 64 | 47 | 1.0 | 2.0 | 0.00 | 0.00 | 0.00 | 65 | 1064.5 |
| 20260502161054 | 63 | 44 | 2.0 | 6.0 | 0.00 | 0.00 | 0.00 | 62 | 1064.5 |
| 20260502160552 | 63 | 13 | 2.0 | 4.0 | 0.00 | 0.00 | 0.00 | 63 | 1064.6 |
| 20260502152005 | 61 | 9 | 2.0 | 2.0 | 0.00 | 0.00 | 0.00 | 72 | 1064.6 |
| 20260502151501 | 60 | 41 | 2.0 | 4.0 | 0.00 | 0.00 | 0.00 | 74 | 1064.7 |
| 20260502150959 | 60 | 10 | 1.0 | 4.0 | 0.00 | 0.00 | 0.00 | 73 | 1064.6 |
| 20260502150456 | 59 | 20 | 1.0 | 3.0 | 0.00 | 0.00 | 0.00 | 74 | 1064.4 |
| 20260502130341 | 52 | 6 | 4.0 | 8.0 | 0.00 | 0.00 | 0.00 | 90 | 1063.1 |
| 20260502123324 | 50 | 7 | 1.0 | 3.0 | 0.00 | 0.00 | 0.00 | 95 | 1062.7 |
| 20260502122821 | 49 | 345 | 2.0 | 4.0 | 0.00 | 0.00 | 0.00 | 95 | 1062.8 |
| 20260502122316 | 49 | 346 | 1.0 | 2.0 | 0.00 | 0.00 | 0.00 | 97 | 1062.6 |
| 20260502121815 | 48 | 342 | 2.0 | 4.0 | 0.00 | 0.00 | 0.00 | 97 | 1062.4 |
| 20260502121312 | 48 | 13 | 2.0 | 3.0 | 0.00 | 0.00 | 0.00 | 98 | 1062.2 |
| 20260502120809 | 48 | 7 | 1.0 | 3.0 | 0.00 | 0.00 | 0.00 | 98 | 1062.1 |
| 20260502120305 | 47 | 8 | 0.0 | 1.0 | 0.00 | 0.00 | 0.00 | 99 | 1062.0 |
| 20260502115803 | 47 | 8 | 1.0 | 2.0 | 0.00 | 0.00 | 0.00 | 99 | 1061.9 |
| 20260502115300 | 47 | 354 | 0.0 | 0.0 | 0.00 | 0.00 | 0.00 | 98 | 1061.8 |
| 20260502114756 | 48 | 354 | 0.0 | 0.0 | 0.00 | 0.00 | 0.00 | 98 | 1061.6 |
| 20260502114253 | 47 | 357 | 1.0 | 2.0 | 0.00 | 0.00 | 0.00 | 98 | 1061.6 |
| 20260502113750 | 48 | 356 | 1.0 | 2.0 | 0.00 | 0.00 | 0.00 | 98 | 1061.6 |
| 20260502113248 | 48 | 352 | 2.0 | 3.0 | 0.00 | 0.00 | 0.00 | 98 | 1061.6 |
| 20260502112746 | 48 | 7 | 0.0 | 1.0 | 0.00 | 0.00 | 0.00 | 98 | 1061.6 |
| 20260502112243 | 48 | 12 | 1.0 | 3.0 | 0.00 | 0.00 | 0.00 | 98 | 1061.5 |
| 20260502111740 | 48 | 8 | 1.0 | 2.0 | 0.00 | 0.00 | 0.00 | 98 | 1061.6 |
| 20260502111238 | 48 | 7 | 2.0 | 2.0 | 0.00 | 0.00 | 0.00 | 98 | 1061.5 |
| 20260502110735 | 48 | 13 | 1.0 | 2.0 | 0.00 | 0.00 | 0.00 | 98 | 1061.4 |
| 20260502110233 | 48 | 356 | 2.0 | 3.0 | 0.00 | 0.00 | 0.00 | 98 | 1061.5 |
| 20260502105731 | 48 | 5 | 2.0 | 3.0 | 0.00 | 0.00 | 0.00 | 99 | 1061.6 |
| 20260502105226 | 48 | 13 | 0.0 | 2.0 | 0.00 | 0.00 | 0.00 | 99 | 1061.4 |
| 20260502104724 | 48 | 12 | 0.0 | 2.0 | 0.00 | 0.00 | 0.00 | 99 | 1061.3 |
| 20260502104222 | 48 | 6 | 1.0 | 1.0 | 0.00 | 0.00 | 0.00 | 99 | 1061.5 |
| 20260502103719 | 48 | 4 | 1.0 | 2.0 | 0.00 | 0.00 | 0.00 | 99 | 1061.3 |
| 20260502103217 | 48 | 8 | 0.0 | 3.0 | 0.00 | 0.00 | 0.00 | 98 | 1061.1 |
| 20260502102713 | 48 | 8 | 1.0 | 2.0 | 0.00 | 0.00 | 0.00 | 98 | 1061.0 |
| 20260502102210 | 48 | 8 | 2.0 | 3.0 | 0.00 | 0.00 | 0.00 | 98 | 1061.1 |
| 20260502101708 | 48 | 6 | 2.0 | 2.0 | 0.00 | 0.00 | 0.00 | 98 | 1060.9 |
| 20260502101206 | 48 | 10 | 1.0 | 3.0 | 0.00 | 0.00 | 0.00 | 98 | 1060.8 |
| 20260502100704 | 48 | 353 | 2.0 | 3.0 | 0.00 | 0.00 | 0.00 | 98 | 1060.7 |
| 20260502100202 | 48 | 19 | 1.0 | 2.0 | 0.00 | 0.00 | 0.00 | 98 | 1060.6 |
| 20260502091136 | 48 | 15 | 2.0 | 2.0 | 0.00 | 0.00 | 0.00 | 99 | 1059.9 |
| 20260502090633 | 48 | 17 | 0.0 | 0.0 | 0.00 | 0.00 | 0.00 | 99 | 1059.7 |
| 20260502090131 | 48 | 28 | 1.0 | 3.0 | 0.00 | 0.00 | 0.00 | 99 | 1059.8 |
| 20260502071528 | 50 | 17 | 4.0 | 7.0 | 0.00 | 0.00 | 0.00 | 99 | 1059.8 |
| 20260502071026 | 50 | 18 | 2.0 | 3.0 | 0.00 | 0.00 | 0.00 | 99 | 1059.9 |
| 20260502070524 | 50 | 14 | 2.0 | 4.0 | 0.00 | 0.00 | 0.00 | 99 | 1059.9 |
| 20260502070022 | 50 | 15 | 3.0 | 4.0 | 0.00 | 0.00 | 0.00 | 99 | 1059.9 |
| 20260502065520 | 50 | 12 | 2.0 | 2.0 | 0.00 | 0.00 | 0.00 | 99 | 1059.7 |
| 20260502065017 | 50 | 14 | 1.0 | 3.0 | 0.00 | 0.00 | 0.00 | 99 | 1059.8 |
| 20260502064516 | 50 | 17 | 1.0 | 3.0 | 0.00 | 0.00 | 0.00 | 99 | 1059.5 |
| 20260502064012 | 50 | 13 | 2.0 | 3.0 | 0.00 | 0.00 | 0.00 | 99 | 1059.5 |
| 20260502063510 | 50 | 11 | 1.0 | 7.0 | 0.00 | 0.00 | 0.00 | 99 | 1059.5 |
| 20260502063008 | 50 | 15 | 1.0 | 3.0 | 0.00 | 0.00 | 0.00 | 99 | 1059.7 |
| 20260502062504 | 50 | 13 | 3.0 | 3.0 | 0.00 | 0.00 | 0.00 | 99 | 1059.6 |
| 20260502062003 | 50 | 7 | 1.0 | 2.0 | 0.00 | 0.00 | 0.00 | 99 | 1059.8 |
| 20260502061500 | 50 | 10 | 2.0 | 3.0 | 0.00 | 0.00 | 0.00 | 99 | 1059.8 |
| 20260502060955 | 50 | 9 | 1.0 | 3.0 | 0.00 | 0.00 | 0.00 | 99 | 1059.9 |
| 20260502060451 | 50 | 8 | 2.0 | 3.0 | 0.00 | 0.00 | 0.00 | 99 | 1060.0 |
| 20260502055948 | 50 | 14 | 2.0 | 3.0 | 0.00 | 0.00 | 0.00 | 99 | 1059.9 |
| 20260502055446 | 50 | 5 | 1.0 | 3.0 | 0.00 | 0.00 | 0.00 | 99 | 1059.8 |
| 20260502054941 | 50 | 11 | 1.0 | 3.0 | 0.00 | 0.00 | 0.00 | 99 | 1060.0 |
| 20260502054438 | 50 | 356 | 1.0 | 2.0 | 0.00 | 0.00 | 0.00 | 99 | 1059.8 |
| 20260502053935 | 50 | 7 | 1.0 | 3.0 | 0.00 | 0.00 | 0.00 | 99 | 1060.0 |
| 20260502053432 | 50 | 16 | 2.0 | 3.0 | 0.00 | 0.00 | 0.00 | 99 | 1060.0 |
| 20260502052930 | 50 | 351 | 2.0 | 3.0 | 0.00 | 0.00 | 0.00 | 99 | 1059.9 |
| 20260502052428 | 50 | 11 | 0.0 | 2.0 | 0.00 | 0.00 | 0.00 | 99 | 1059.7 |
| 20260502051926 | 50 | 0 | 1.0 | 4.0 | 0.00 | 0.00 | 0.00 | 99 | 1059.8 |
| 20260502051424 | 50 | 355 | 2.0 | 3.0 | 0.00 | 0.00 | 0.00 | 99 | 1059.9 |
| 20260502050921 | 50 | 355 | 2.0 | 3.0 | 0.00 | 0.00 | 0.00 | 99 | 1059.8 |
| 20260502050417 | 50 | 12 | 3.0 | 3.0 | 0.00 | 0.00 | 0.00 | 99 | 1059.5 |
| 20260502045915 | 50 | 25 | 0.0 | 1.0 | 0.00 | 1.21 | 1.21 | 99 | 1059.4 |
| 20260502045411 | 50 | 7 | 1.0 | 2.0 | 0.00 | 1.21 | 1.21 | 99 | 1059.5 |
| 20260502044908 | 50 | 347 | 2.0 | 2.0 | 0.00 | 1.21 | 1.21 | 99 | 1059.4 |
| 20260502044403 | 50 | 3 | 0.0 | 2.0 | 0.00 | 1.21 | 1.21 | 99 | 1059.5 |
| 20260502043901 | 50 | 10 | 2.0 | 3.0 | 0.00 | 1.21 | 1.21 | 99 | 1059.6 |
| 20260502043359 | 50 | 13 | 0.0 | 1.0 | 0.00 | 1.21 | 1.21 | 99 | 1059.3 |
| 20260502042858 | 50 | 9 | 1.0 | 2.0 | 0.00 | 1.21 | 1.21 | 99 | 1059.5 |
| 20260502042355 | 50 | 9 | 0.0 | 1.0 | 0.00 | 1.21 | 1.21 | 99 | 1059.5 |
| 20260502041853 | 51 | 17 | 0.0 | 2.0 | 0.00 | 1.21 | 1.21 | 99 | 1059.6 |
| 20260502041350 | 51 | 15 | 1.0 | 4.0 | 0.00 | 1.21 | 1.21 | 99 | 1059.6 |
| 20260502040847 | 51 | 12 | 1.0 | 6.0 | 0.00 | 1.21 | 1.21 | 99 | 1059.8 |
| 20260502040344 | 51 | 23 | 2.0 | 6.0 | 0.00 | 1.21 | 1.21 | 99 | 1059.6 |
| 20260502035840 | 51 | 32 | 1.0 | 2.0 | 0.00 | 1.21 | 1.21 | 99 | 1059.6 |
| 20260502035337 | 51 | 17 | 0.0 | 3.0 | 0.00 | 1.21 | 1.21 | 99 | 1059.4 |
| 20260502034834 | 51 | 26 | 2.0 | 2.0 | 0.00 | 1.21 | 1.21 | 99 | 1059.3 |
| 20260502034333 | 51 | 29 | 3.0 | 3.0 | 0.00 | 1.21 | 1.21 | 99 | 1059.3 |
| 20260502033831 | 51 | 33 | 3.0 | 4.0 | 0.00 | 1.21 | 1.21 | 99 | 1059.5 |
| 20260502033328 | 51 | 43 | 1.0 | 3.0 | 0.00 | 1.21 | 1.21 | 99 | 1059.7 |
| 20260502032825 | 51 | 32 | 1.0 | 3.0 | 0.00 | 1.21 | 1.21 | 99 | 1059.4 |
| 20260502032320 | 51 | 35 | 2.0 | 4.0 | 0.00 | 1.21 | 1.21 | 99 | 1059.6 |
| 20260502031818 | 51 | 20 | 3.0 | 4.0 | 0.00 | 1.21 | 1.21 | 99 | 1059.7 |
| 20260502031316 | 51 | 26 | 2.0 | 7.0 | 0.00 | 1.21 | 1.21 | 99 | 1059.5 |
| 20260502030815 | 51 | 15 | 2.0 | 6.0 | 0.00 | 1.21 | 1.21 | 99 | 1059.3 |
| 20260502030312 | 51 | 22 | 1.0 | 3.0 | 0.00 | 1.21 | 1.21 | 99 | 1059.3 |
| 20260502025809 | 51 | 16 | 1.0 | 3.0 | 0.00 | 1.21 | 1.21 | 99 | 1059.4 |
| 20260502025307 | 51 | 22 | 2.0 | 7.0 | 0.00 | 1.21 | 1.21 | 99 | 1059.2 |
| 20260502024805 | 51 | 6 | 4.0 | 7.0 | 0.00 | 1.21 | 1.21 | 99 | 1058.9 |
| 20260502024302 | 51 | 49 | 1.0 | 2.0 | 0.00 | 1.21 | 1.21 | 99 | 1058.9 |
| 20260502023800 | 51 | 28 | 4.0 | 8.0 | 0.00 | 1.21 | 1.21 | 99 | 1058.7 |
| 20260502023258 | 51 | 26 | 2.0 | 3.0 | 0.00 | 1.21 | 1.21 | 99 | 1058.7 |
| 20260502022755 | 51 | 40 | 1.0 | 6.0 | 0.00 | 1.21 | 1.21 | 99 | 1058.4 |
| 20260502022251 | 50 | 34 | 1.0 | 6.0 | 0.00 | 1.21 | 1.21 | 99 | 1058.6 |
| 20260502021748 | 51 | 39 | 4.0 | 9.0 | 0.00 | 1.21 | 1.21 | 99 | 1058.5 |
| 20260502021246 | 51 | 28 | 1.0 | 6.0 | 0.00 | 1.21 | 1.21 | 99 | 1058.5 |
| 20260502020743 | 51 | 28 | 2.0 | 2.0 | 0.00 | 1.21 | 1.21 | 99 | 1058.3 |
| 20260502020240 | 51 | 26 | 3.0 | 10.0 | 0.00 | 1.21 | 1.21 | 99 | 1058.2 |
| 20260502015738 | 51 | 27 | 1.0 | 9.0 | 0.00 | 1.21 | 1.21 | 99 | 1058.2 |
| 20260502015234 | 51 | 25 | 1.0 | 6.0 | 0.00 | 1.21 | 1.21 | 99 | 1058.3 |
| 20260502014732 | 51 | 26 | 2.0 | 6.0 | 0.00 | 1.21 | 1.21 | 99 | 1058.0 |
| 20260502014228 | 51 | 21 | 3.0 | 3.0 | 0.00 | 1.21 | 1.21 | 99 | 1057.9 |
| 20260502013725 | 51 | 30 | 1.0 | 1.0 | 0.00 | 1.21 | 1.21 | 99 | 1058.0 |
| 20260502013220 | 51 | 25 | 1.0 | 3.0 | 0.00 | 1.21 | 1.21 | 99 | 1057.8 |
| 20260502012717 | 51 | 21 | 2.0 | 4.0 | 0.00 | 1.21 | 1.21 | 99 | 1058.0 |
| 20260502012215 | 51 | 23 | 2.0 | 6.0 | 0.00 | 1.21 | 1.21 | 99 | 1057.7 |
| 20260502011712 | 51 | 13 | 3.0 | 7.0 | 0.00 | 1.21 | 1.21 | 99 | 1057.6 |
| 20260502011208 | 51 | 27 | 2.0 | 3.0 | 0.00 | 1.21 | 1.21 | 99 | 1057.7 |
| 20260502010706 | 51 | 26 | 3.0 | 6.0 | 0.00 | 1.21 | 1.21 | 99 | 1057.5 |
| 20260502010201 | 51 | 32 | 2.0 | 6.0 | 0.00 | 1.21 | 1.21 | 99 | 1057.4 |
| 20260502005659 | 51 | 38 | 1.0 | 2.0 | 0.00 | 1.21 | 1.21 | 99 | 1057.4 |
| 20260502005156 | 51 | 22 | 2.0 | 8.0 | 0.00 | 1.21 | 1.21 | 99 | 1057.4 |
| 20260502004652 | 51 | 29 | 3.0 | 7.0 | 0.00 | 1.21 | 1.21 | 99 | 1057.0 |
| 20260502004149 | 51 | 15 | 3.0 | 6.0 | 0.00 | 1.21 | 1.21 | 99 | 1057.0 |
| 20260502003647 | 51 | 356 | 4.0 | 9.0 | 0.00 | 1.21 | 1.21 | 99 | 1056.8 |
| 20260502003144 | 51 | 35 | 2.0 | 11.0 | 0.00 | 1.21 | 1.21 | 99 | 1056.7 |
| 20260502002640 | 51 | 5 | 4.0 | 8.0 | 0.00 | 1.21 | 1.21 | 99 | 1056.7 |
| 20260502002138 | 52 | 36 | 6.0 | 10.0 | 0.00 | 1.21 | 1.21 | 99 | 1056.7 |
| 20260502001635 | 52 | 50 | 6.0 | 8.0 | 0.00 | 1.21 | 1.21 | 99 | 1056.4 |
| 20260502001132 | 52 | 28 | 5.0 | 7.0 | 0.00 | 1.21 | 1.21 | 99 | 1056.3 |
| 20260502000630 | 52 | 42 | 3.0 | 7.0 | 0.00 | 1.21 | 1.21 | 99 | 1056.2 |
| 20260502000128 | 53 | 14 | 5.0 | 9.0 | 0.00 | 1.21 | 1.21 | 99 | 1056.0 |
| 20260501235623 | 53 | 26 | 3.0 | 7.0 | 0.00 | 1.21 | 1.21 | 99 | 1055.9 |
| 20260501235120 | 53 | 39 | 2.0 | 3.0 | 0.00 | 1.21 | 1.21 | 99 | 1055.8 |
| 20260501234615 | 53 | 36 | 1.0 | 7.0 | 0.00 | 1.21 | 1.21 | 99 | 1055.6 |
| 20260501234113 | 53 | 25 | 9.0 | 13.0 | 0.07 | 1.21 | 1.21 | 99 | 1055.6 |
| 20260501233611 | 53 | 19 | 5.0 | 9.0 | 0.05 | 1.20 | 1.20 | 99 | 1055.5 |
| 20260501233108 | 53 | 41 | 6.0 | 7.0 | 0.00 | 1.19 | 1.19 | 99 | 1055.4 |
| 20260501232604 | 53 | 41 | 6.0 | 7.0 | 0.00 | 1.19 | 1.19 | 99 | 1055.6 |
| 20260501232102 | 53 | 41 | 6.0 | 7.0 | 0.00 | 1.19 | 1.19 | 99 | 1055.7 |
| 20260501231559 | 53 | 41 | 6.0 | 7.0 | 0.00 | 1.19 | 1.19 | 99 | 1056.0 |
| 20260501231057 | 54 | 28 | 4.0 | 6.0 | 0.00 | 1.19 | 1.19 | 99 | 1055.9 |
| 20260501230555 | 54 | 59 | 5.0 | 9.0 | 0.00 | 1.19 | 1.19 | 99 | 1055.6 |
| 20260501230053 | 54 | 31 | 4.0 | 7.0 | 0.00 | 1.19 | 1.19 | 99 | 1055.3 |
| 20260501225550 | 54 | 16 | 2.0 | 7.0 | 0.00 | 1.19 | 1.19 | 99 | 1055.2 |
| 20260501225046 | 54 | 17 | 6.0 | 8.0 | 0.07 | 1.19 | 1.19 | 99 | 1055.1 |
| 20260501224544 | 54 | 22 | 5.0 | 8.0 | 0.07 | 1.19 | 1.19 | 99 | 1055.3 |
| 20260501224041 | 54 | 9 | 4.0 | 6.0 | 0.00 | 1.18 | 1.18 | 99 | 1055.2 |
| 20260501223537 | 54 | 22 | 3.0 | 3.0 | 0.00 | 1.18 | 1.18 | 99 | 1055.2 |
| 20260501223033 | 54 | 15 | 3.0 | 3.0 | 0.00 | 1.18 | 1.18 | 99 | 1055.5 |
| 20260501222530 | 54 | 351 | 5.0 | 7.0 | 0.00 | 1.18 | 1.18 | 99 | 1055.5 |
| 20260501222027 | 54 | 15 | 4.0 | 6.0 | 0.00 | 1.18 | 1.18 | 99 | 1055.5 |
| 20260501221523 | 54 | 25 | 4.0 | 4.0 | 0.00 | 1.18 | 1.18 | 99 | 1055.3 |
| 20260501221021 | 55 | 359 | 3.0 | 7.0 | 0.00 | 1.18 | 1.18 | 99 | 1055.0 |
| 20260501220519 | 54 | 44 | 6.0 | 10.0 | 0.00 | 1.18 | 1.18 | 99 | 1054.8 |
| 20260501220015 | 54 | 19 | 6.0 | 10.0 | 0.05 | 1.18 | 1.18 | 99 | 1054.6 |
| 20260501215511 | 55 | 31 | 4.0 | 4.0 | 0.05 | 1.18 | 1.18 | 99 | 1055.1 |
| 20260501215007 | 55 | 23 | 2.0 | 2.0 | 0.00 | 1.17 | 1.17 | 99 | 1055.3 |
| 20260501214503 | 55 | 2 | 2.0 | 7.0 | 0.07 | 1.17 | 1.17 | 99 | 1055.3 |
| 20260501213958 | 55 | 9 | 5.0 | 10.0 | 0.12 | 1.17 | 1.17 | 99 | 1054.7 |
| 20260501213456 | 55 | 17 | 4.0 | 8.0 | 0.12 | 1.16 | 1.16 | 99 | 1054.8 |
| 20260501212955 | 55 | 18 | 6.0 | 9.0 | 0.07 | 1.15 | 1.15 | 99 | 1054.8 |
| 20260501212452 | 55 | 24 | 3.0 | 8.0 | 0.12 | 1.14 | 1.14 | 99 | 1054.8 |
| 20260501211949 | 55 | 13 | 4.0 | 6.0 | 0.12 | 1.14 | 1.14 | 99 | 1055.1 |
| 20260501211447 | 55 | 0 | 2.0 | 14.0 | 0.12 | 1.12 | 1.12 | 99 | 1055.2 |
| 20260501210944 | 55 | 20 | 4.0 | 6.0 | 0.19 | 1.11 | 1.11 | 99 | 1055.1 |
| 20260501210441 | 55 | 25 | 6.0 | 9.0 | 0.12 | 1.09 | 1.09 | 99 | 1054.9 |
| 20260501205937 | 55 | 10 | 4.0 | 7.0 | 0.12 | 1.08 | 1.08 | 99 | 1054.4 |
| 20260501205434 | 55 | 28 | 8.0 | 14.0 | 0.05 | 1.07 | 1.07 | 99 | 1053.9 |
| 20260501204931 | 55 | 10 | 2.0 | 2.0 | 0.00 | 1.06 | 1.06 | 99 | 1054.2 |
| 20260501204427 | 55 | 31 | 6.0 | 9.0 | 0.00 | 1.06 | 1.06 | 99 | 1053.9 |
| 20260501203924 | 55 | 18 | 2.0 | 3.0 | 0.00 | 1.06 | 1.06 | 99 | 1054.4 |
| 20260501203421 | 55 | 26 | 2.0 | 2.0 | 0.00 | 1.06 | 1.06 | 99 | 1053.9 |
| 20260501202918 | 56 | 11 | 5.0 | 6.0 | 0.00 | 1.06 | 1.06 | 99 | 1053.7 |
| 20260501202415 | 56 | 37 | 4.0 | 6.0 | 0.00 | 1.06 | 1.06 | 99 | 1053.6 |
| 20260501201911 | 56 | 18 | 6.0 | 11.0 | 0.07 | 1.06 | 1.06 | 99 | 1053.6 |
| 20260501201409 | 56 | 27 | 5.0 | 6.0 | 0.07 | 1.06 | 1.06 | 99 | 1053.0 |
| 20260501200905 | 56 | 21 | 4.0 | 7.0 | 0.05 | 1.05 | 1.05 | 99 | 1053.5 |
| 20260501200402 | 56 | 7 | 2.0 | 3.0 | 0.05 | 1.05 | 1.05 | 99 | 1053.7 |
| 20260501195900 | 56 | 331 | 3.0 | 6.0 | 0.00 | 1.04 | 1.04 | 99 | 1053.3 |
| 20260501195355 | 56 | 8 | 4.0 | 7.0 | 0.00 | 1.04 | 1.04 | 99 | 1052.6 |
| 20260501194852 | 56 | 22 | 4.0 | 8.0 | 0.00 | 1.04 | 1.04 | 99 | 1052.9 |
| 20260501194348 | 56 | 15 | 4.0 | 8.0 | 0.07 | 1.04 | 1.04 | 99 | 1052.8 |
| 20260501193844 | 56 | 36 | 4.0 | 6.0 | 0.00 | 1.03 | 1.03 | 99 | 1052.9 |
| 20260501193343 | 56 | 13 | 2.0 | 3.0 | 0.00 | 1.03 | 1.03 | 99 | 1053.2 |
| 20260501192840 | 56 | 22 | 2.0 | 3.0 | 0.05 | 1.03 | 1.03 | 99 | 1053.2 |
| 20260501192337 | 56 | 23 | 1.0 | 2.0 | 0.05 | 1.03 | 1.03 | 99 | 1053.6 |